| time (UTC) | temp C | wind direction | speed KPH | gust KPH | rain 1hr cm | rain 24hr cm | rain mn cm | humidity % | barometer mb |
| 20260905115212 | 21 | 283 | 9.7 | 19.3 | 0.00 | 0.05 | 0.05 | 53 | 1008.2 |
| 20260905114712 | 21 | 304 | 14.5 | 20.9 | 0.00 | 0.05 | 0.05 | 53 | 1008.2 |
| 20260905113712 | 21 | 303 | 16.1 | 24.1 | 0.00 | 0.05 | 0.05 | 52 | 1008.1 |
| 20260905113212 | 21 | 303 | 19.3 | 24.1 | 0.00 | 0.05 | 0.05 | 53 | 1008.2 |
| 20260905112712 | 21 | 304 | 20.9 | 32.2 | 0.00 | 0.05 | 0.05 | 52 | 1008.3 |
| 20260905112212 | 21 | 304 | 22.5 | 25.7 | 0.00 | 0.05 | 0.05 | 53 | 1008.2 |
| 20260905111712 | 21 | 308 | 22.5 | 25.7 | 0.00 | 0.05 | 0.05 | 53 | 1008.1 |
| 20260905111212 | 21 | 304 | 17.7 | 29.0 | 0.00 | 0.05 | 0.05 | 53 | 1008.2 |
| 20260905110713 | 21 | 313 | 22.5 | 29.0 | 0.00 | 0.05 | 0.05 | 53 | 1008.3 |
| 20260905105712 | 21 | 317 | 20.9 | 27.4 | 0.00 | 0.05 | 0.05 | 52 | 1008.0 |
| 20260905105212 | 21 | 320 | 22.5 | 27.4 | 0.00 | 0.05 | 0.05 | 52 | 1008.0 |
| 20260905104712 | 21 | 319 | 24.1 | 32.2 | 0.00 | 0.05 | 0.05 | 52 | 1008.0 |
| 20260905102712 | 22 | 327 | 27.4 | 32.2 | 0.00 | 0.05 | 0.05 | 49 | 1008.1 |
| 20260905102212 | 22 | 310 | 25.7 | 32.2 | 0.00 | 0.05 | 0.05 | 49 | 1008.1 |
| 20260905101712 | 22 | 317 | 25.7 | 33.8 | 0.00 | 0.05 | 0.05 | 48 | 1008.0 |
| 20260905101212 | 22 | 314 | 25.7 | 35.4 | 0.00 | 0.05 | 0.05 | 48 | 1007.9 |
| 20260905100712 | 22 | 318 | 27.4 | 33.8 | 0.00 | 0.05 | 0.05 | 47 | 1007.8 |
| 20260905100212 | 22 | 310 | 24.1 | 32.2 | 0.00 | 0.05 | 0.05 | 47 | 1008.0 |
| 20260905095212 | 22 | 315 | 22.5 | 32.2 | 0.00 | 0.05 | 0.05 | 47 | 1007.7 |
| 20260905094712 | 22 | 308 | 20.9 | 33.8 | 0.00 | 0.05 | 0.05 | 47 | 1007.8 |
| 20260905094212 | 22 | 308 | 20.9 | 33.8 | 0.00 | 0.05 | 0.05 | 46 | 1007.8 |
| 20260905093712 | 22 | 310 | 22.5 | 32.2 | 0.00 | 0.05 | 0.05 | 46 | 1007.7 |
| 20260905092712 | 22 | 311 | 24.1 | 32.2 | 0.00 | 0.05 | 0.05 | 46 | 1007.7 |
| 20260905092212 | 22 | 305 | 22.5 | 32.2 | 0.00 | 0.05 | 0.05 | 46 | 1007.8 |
| 20260905090712 | 22 | 316 | 25.7 | 40.2 | 0.00 | 0.05 | 0.05 | 46 | 1007.9 |
| 20260905090211 | 22 | 309 | 27.4 | 37.0 | 0.00 | 0.05 | 0.05 | 46 | 1007.7 |
| 20260905085712 | 22 | 312 | 32.2 | 41.8 | 0.00 | 0.05 | 0.05 | 46 | 1007.8 |
| 20260905084212 | 21 | 320 | 27.4 | 41.8 | 0.00 | 0.05 | 0.05 | 52 | 1007.5 |
| 20260905083711 | 21 | 331 | 27.4 | 33.8 | 0.00 | 0.05 | 0.05 | 54 | 1007.6 |
| 20260905083212 | 21 | 331 | 25.7 | 37.0 | 0.00 | 0.05 | 0.05 | 55 | 1007.8 |
| 20260905082712 | 21 | 315 | 25.7 | 35.4 | 0.00 | 0.05 | 0.05 | 55 | 1008.1 |
| 20260905082212 | 21 | 320 | 32.2 | 49.9 | 0.00 | 0.05 | 0.05 | 56 | 1007.7 |
| 20260905081711 | 21 | 345 | 22.5 | 32.2 | 0.00 | 0.05 | 0.05 | 59 | 1008.2 |
| 20260905081211 | 21 | 334 | 20.9 | 29.0 | 0.00 | 0.05 | 0.05 | 60 | 1008.2 |
| 20260905080712 | 21 | 317 | 22.5 | 32.2 | 0.00 | 0.05 | 0.05 | 60 | 1008.5 |
| 20260905080211 | 21 | 311 | 25.7 | 29.0 | 0.00 | 0.05 | 0.05 | 60 | 1008.4 |
| 20260905075712 | 20 | 322 | 22.5 | 29.0 | 0.00 | 0.05 | 0.05 | 60 | 1008.4 |
| 20260905075212 | 20 | 316 | 19.3 | 25.7 | 0.00 | 0.05 | 0.05 | 61 | 1008.6 |
| 20260905074712 | 20 | 297 | 16.1 | 25.7 | 0.00 | 0.05 | 0.05 | 61 | 1008.6 |
| 20260905073711 | 21 | 329 | 25.7 | 35.4 | 0.00 | 0.05 | 0.05 | 59 | 1008.3 |
| 20260905073212 | 21 | 337 | 22.5 | 33.8 | 0.03 | 0.05 | 0.05 | 58 | 1008.1 |
| 20260905072212 | 21 | 300 | 20.9 | 35.4 | 0.05 | 0.05 | 0.05 | 59 | 1008.3 |
| 20260905071711 | 21 | 282 | 30.6 | 46.7 | 0.05 | 0.05 | 0.05 | 59 | 1009.0 |
| 20260905071212 | 21 | 274 | 32.2 | 45.1 | 0.05 | 0.05 | 0.05 | 60 | 1009.2 |
| 20260905070712 | 20 | 278 | 27.4 | 41.8 | 0.05 | 0.05 | 0.05 | 62 | 1009.5 |
| 20260905065712 | 20 | 278 | 25.7 | 32.2 | 0.05 | 0.05 | 0.05 | 62 | 1008.9 |
| 20260905064211 | 21 | 282 | 32.2 | 48.3 | 0.05 | 0.05 | 0.05 | 60 | 1008.9 |
| 20260905063711 | 21 | 287 | 25.7 | 53.1 | 0.05 | 0.05 | 0.05 | 58 | 1008.7 |
| 20260905063211 | 22 | 278 | 48.3 | 62.8 | 0.03 | 0.03 | 0.03 | 53 | 1009.5 |
| 20260905062712 | 23 | 270 | 57.9 | 78.9 | 0.00 | 0.00 | 0.00 | 46 | 1009.3 |
| 20260905061711 | 26 | 255 | 62.8 | 88.5 | 0.00 | 0.00 | 0.00 | 36 | 1008.7 |
| 20260905061211 | 26 | 249 | 72.4 | 98.2 | 0.00 | 0.00 | 0.00 | 33 | 1008.4 |
| 20260905060711 | 27 | 237 | 59.5 | 77.2 | 0.00 | 0.00 | 0.00 | 32 | 1007.9 |
| 20260905055711 | 28 | 276 | 35.4 | 59.5 | 0.00 | 0.00 | 0.00 | 27 | 1007.2 |
| 20260905055211 | 28 | 286 | 33.8 | 59.5 | 0.00 | 0.00 | 0.00 | 27 | 1007.1 |
| 20260905054711 | 29 | 274 | 32.2 | 51.5 | 0.00 | 0.00 | 0.00 | 27 | 1006.6 |
| 20260905054211 | 29 | 277 | 45.1 | 59.5 | 0.00 | 0.00 | 0.00 | 27 | 1006.4 |
| 20260905053711 | 29 | 275 | 56.3 | 78.9 | 0.00 | 0.00 | 0.00 | 26 | 1006.2 |
| 20260905053211 | 29 | 280 | 41.8 | 69.2 | 0.00 | 0.00 | 0.00 | 26 | 1005.7 |
| 20260905052211 | 29 | 270 | 54.7 | 77.2 | 0.00 | 0.00 | 0.00 | 26 | 1005.6 |
| 20260905051711 | 29 | 271 | 53.1 | 77.2 | 0.00 | 0.00 | 0.00 | 26 | 1005.4 |
| 20260905051211 | 29 | 278 | 46.7 | 74.0 | 0.00 | 0.00 | 0.00 | 25 | 1005.6 |
| 20260905050711 | 29 | 271 | 46.7 | 77.2 | 0.00 | 0.00 | 0.00 | 25 | 1005.5 |
| 20260905050211 | 30 | 263 | 56.3 | 75.6 | 0.00 | 0.00 | 0.00 | 25 | 1005.3 |
| 20260905045711 | 30 | 275 | 41.8 | 74.0 | 0.00 | 0.00 | 0.00 | 24 | 1005.4 |
| 20260905045211 | 30 | 274 | 48.3 | 66.0 | 0.00 | 0.00 | 0.00 | 24 | 1005.4 |
| 20260905044711 | 30 | 269 | 37.0 | 62.8 | 0.00 | 0.00 | 0.00 | 24 | 1005.3 |
| 20260905044212 | 30 | 261 | 33.8 | 51.5 | 0.00 | 0.00 | 0.00 | 24 | 1005.2 |
| 20260905043711 | 30 | 270 | 37.0 | 72.4 | 0.00 | 0.00 | 0.00 | 22 | 1005.2 |
| 20260905042711 | 30 | 275 | 22.5 | 33.8 | 0.00 | 0.00 | 0.00 | 27 | 1005.5 |
| 20260905042211 | 30 | 301 | 27.4 | 35.4 | 0.00 | 0.00 | 0.00 | 26 | 1005.2 |
| 20260905041711 | 30 | 318 | 25.7 | 41.8 | 0.00 | 0.00 | 0.00 | 27 | 1005.1 |
| 20260905041211 | 30 | 328 | 29.0 | 41.8 | 0.00 | 0.00 | 0.00 | 27 | 1005.0 |
| 20260905040211 | 29 | 335 | 27.4 | 38.6 | 0.00 | 0.00 | 0.00 | 27 | 1005.3 |
| 20260905035711 | 29 | 329 | 25.7 | 40.2 | 0.00 | 0.00 | 0.00 | 28 | 1005.2 |
| 20260905035210 | 28 | 340 | 24.1 | 38.6 | 0.00 | 0.00 | 0.00 | 27 | 1005.5 |
| 20260905034711 | 28 | 338 | 32.2 | 48.3 | 0.00 | 0.00 | 0.00 | 27 | 1005.4 |
| 20260905034211 | 28 | 346 | 25.7 | 46.7 | 0.00 | 0.00 | 0.00 | 27 | 1005.6 |
| 20260905033711 | 28 | 334 | 20.9 | 41.8 | 0.00 | 0.00 | 0.00 | 28 | 1005.7 |
| 20260905033210 | 28 | 343 | 22.5 | 40.2 | 0.00 | 0.00 | 0.00 | 28 | 1005.8 |
| 20260905032211 | 28 | 354 | 30.6 | 46.7 | 0.00 | 0.00 | 0.00 | 28 | 1006.2 |
| 20260905031710 | 28 | 345 | 37.0 | 64.4 | 0.00 | 0.00 | 0.00 | 28 | 1006.4 |
| 20260905031211 | 27 | 347 | 30.6 | 64.4 | 0.00 | 0.00 | 0.00 | 29 | 1006.5 |
| 20260905030211 | 27 | 337 | 38.6 | 51.5 | 0.00 | 0.00 | 0.00 | 28 | 1006.9 |
| 20260905024711 | 27 | 339 | 19.3 | 32.2 | 0.00 | 0.00 | 0.00 | 32 | 1007.2 |
| 20260905024211 | 27 | 0 | 25.7 | 41.8 | 0.00 | 0.00 | 0.00 | 31 | 1007.5 |
| 20260905023710 | 27 | 341 | 27.4 | 49.9 | 0.00 | 0.00 | 0.00 | 30 | 1007.7 |
| 20260905023211 | 27 | 348 | 19.3 | 45.1 | 0.00 | 0.00 | 0.00 | 31 | 1008.0 |
| 20260905022711 | 27 | 335 | 19.3 | 27.4 | 0.00 | 0.00 | 0.00 | 32 | 1008.2 |
| 20260905022211 | 27 | 345 | 25.7 | 37.0 | 0.00 | 0.00 | 0.00 | 31 | 1008.3 |
| 20260905021711 | 27 | 341 | 27.4 | 40.2 | 0.00 | 0.00 | 0.00 | 30 | 1008.7 |
| 20260905021211 | 27 | 345 | 29.0 | 49.9 | 0.00 | 0.00 | 0.00 | 30 | 1008.8 |
| 20260905020711 | 27 | 351 | 25.7 | 35.4 | 0.00 | 0.00 | 0.00 | 32 | 1009.0 |
| 20260905020210 | 27 | 345 | 27.4 | 48.3 | 0.00 | 0.00 | 0.00 | 30 | 1009.1 |
| 20260905015711 | 27 | 344 | 22.5 | 35.4 | 0.00 | 0.00 | 0.00 | 30 | 1009.4 |
| 20260905015211 | 26 | 1 | 20.9 | 32.2 | 0.00 | 0.00 | 0.00 | 30 | 1009.5 |
| 20260905014711 | 26 | 356 | 25.7 | 33.8 | 0.00 | 0.00 | 0.00 | 30 | 1009.7 |
| 20260905014211 | 26 | 346 | 22.5 | 32.2 | 0.00 | 0.00 | 0.00 | 31 | 1009.8 |
| 20260905013711 | 26 | 353 | 19.3 | 27.4 | 0.00 | 0.00 | 0.00 | 31 | 1010.0 |
| 20260905013211 | 26 | 353 | 20.9 | 32.2 | 0.00 | 0.00 | 0.00 | 31 | 1010.1 |
| 20260905012711 | 26 | 347 | 14.5 | 25.7 | 0.00 | 0.00 | 0.00 | 31 | 1010.4 |
| 20260905012210 | 26 | 349 | 14.5 | 27.4 | 0.00 | 0.00 | 0.00 | 32 | 1010.6 |
| 20260905011710 | 26 | 342 | 16.1 | 27.4 | 0.00 | 0.00 | 0.00 | 32 | 1010.5 |
| 20260905011210 | 25 | 337 | 12.9 | 27.4 | 0.00 | 0.00 | 0.00 | 33 | 1010.9 |
| 20260905010711 | 25 | 330 | 16.1 | 22.5 | 0.00 | 0.00 | 0.00 | 33 | 1011.0 |
| 20260905010211 | 25 | 345 | 14.5 | 20.9 | 0.00 | 0.00 | 0.00 | 33 | 1011.4 |
| 20260905005711 | 25 | 347 | 9.7 | 19.3 | 0.00 | 0.00 | 0.00 | 33 | 1011.4 |
| 20260905005210 | 25 | 329 | 9.7 | 22.5 | 0.00 | 0.00 | 0.00 | 33 | 1011.5 |
| 20260905004711 | 24 | 343 | 11.3 | 24.1 | 0.00 | 0.00 | 0.00 | 33 | 1011.7 |
| 20260905004211 | 24 | 328 | 20.9 | 25.7 | 0.00 | 0.00 | 0.00 | 33 | 1012.0 |
| 20260905003710 | 24 | 340 | 19.3 | 29.0 | 0.00 | 0.00 | 0.00 | 34 | 1012.0 |
| 20260905002711 | 23 | 335 | 19.3 | 24.1 | 0.00 | 0.00 | 0.00 | 35 | 1012.4 |
| 20260905002211 | 23 | 341 | 19.3 | 25.7 | 0.00 | 0.00 | 0.00 | 34 | 1012.6 |
| 20260905001210 | 23 | 347 | 20.9 | 27.4 | 0.00 | 0.00 | 0.00 | 35 | 1012.8 |
| 20260905000211 | 22 | 349 | 19.3 | 27.4 | 0.00 | 0.00 | 0.00 | 37 | 1013.4 |
| 20260904235711 | 22 | 334 | 12.9 | 19.3 | 0.00 | 0.00 | 0.00 | 41 | 1013.4 |
| 20260904235210 | 22 | 354 | 6.4 | 16.1 | 0.00 | 0.00 | 0.00 | 42 | 1013.3 |
| 20260904234710 | 21 | 348 | 12.9 | 19.3 | 0.00 | 0.00 | 0.00 | 41 | 1013.3 |
| 20260904234211 | 21 | 345 | 12.9 | 19.3 | 0.00 | 0.00 | 0.00 | 42 | 1013.7 |
| 20260904233711 | 21 | 337 | 11.3 | 16.1 | 0.00 | 0.00 | 0.00 | 42 | 1014.0 |
| 20260904232710 | 21 | 323 | 14.5 | 19.3 | 0.00 | 0.00 | 0.00 | 43 | 1014.1 |
| 20260904232210 | 21 | 322 | 8.0 | 19.3 | 0.00 | 0.00 | 0.00 | 44 | 1014.0 |
| 20260904231711 | 21 | 337 | 11.3 | 19.3 | 0.00 | 0.00 | 0.00 | 44 | 1014.2 |
| 20260904231211 | 20 | 320 | 14.5 | 19.3 | 0.00 | 0.00 | 0.00 | 45 | 1014.2 |
| 20260904230710 | 20 | 325 | 11.3 | 19.3 | 0.00 | 0.00 | 0.00 | 47 | 1014.4 |
| 20260904230210 | 20 | 335 | 9.7 | 19.3 | 0.00 | 0.00 | 0.00 | 48 | 1014.5 |
| 20260904225211 | 18 | 321 | 11.3 | 19.3 | 0.00 | 0.00 | 0.00 | 51 | 1014.7 |
| 20260904224210 | 18 | 325 | 16.1 | 22.5 | 0.00 | 0.00 | 0.00 | 52 | 1015.0 |
| 20260904223710 | 18 | 316 | 16.1 | 20.9 | 0.00 | 0.00 | 0.00 | 53 | 1015.1 |
| 20260904223210 | 17 | 311 | 17.7 | 20.9 | 0.00 | 0.00 | 0.00 | 53 | 1015.2 |
| 20260904222711 | 17 | 326 | 16.1 | 20.9 | 0.00 | 0.00 | 0.00 | 54 | 1015.2 |
| 20260904221711 | 17 | 328 | 14.5 | 20.9 | 0.00 | 0.00 | 0.00 | 55 | 1015.2 |
| 20260904221210 | 17 | 313 | 14.5 | 19.3 | 0.00 | 0.00 | 0.00 | 55 | 1015.0 |
| 20260904220710 | 17 | 323 | 16.1 | 22.5 | 0.00 | 0.00 | 0.00 | 56 | 1015.1 |
| 20260904220210 | 17 | 320 | 16.1 | 22.5 | 0.00 | 0.00 | 0.00 | 57 | 1015.1 |
| 20260904215710 | 16 | 329 | 19.3 | 24.1 | 0.00 | 0.00 | 0.00 | 57 | 1015.0 |
| 20260904215211 | 16 | 315 | 16.1 | 22.5 | 0.00 | 0.00 | 0.00 | 57 | 1015.3 |
| 20260904214710 | 16 | 315 | 17.7 | 22.5 | 0.00 | 0.00 | 0.00 | 57 | 1015.4 |
| 20260904213210 | 16 | 324 | 20.9 | 25.7 | 0.00 | 0.00 | 0.00 | 58 | 1015.4 |
| 20260904212711 | 16 | 322 | 22.5 | 25.7 | 0.00 | 0.00 | 0.00 | 58 | 1015.4 |
| 20260904212210 | 16 | 321 | 20.9 | 25.7 | 0.00 | 0.00 | 0.00 | 59 | 1015.3 |
| 20260904211710 | 16 | 320 | 20.9 | 24.1 | 0.00 | 0.00 | 0.00 | 59 | 1015.4 |
| 20260904211210 | 16 | 320 | 16.1 | 22.5 | 0.00 | 0.00 | 0.00 | 60 | 1015.2 |
| 20260904210711 | 15 | 321 | 19.3 | 22.5 | 0.00 | 0.00 | 0.00 | 60 | 1015.4 |
| 20260904210210 | 15 | 317 | 22.5 | 25.7 | 0.00 | 0.00 | 0.00 | 60 | 1015.4 |
| 20260904205710 | 15 | 310 | 20.9 | 25.7 | 0.00 | 0.00 | 0.00 | 61 | 1015.6 |
| 20260904205211 | 15 | 312 | 22.5 | 27.4 | 0.00 | 0.00 | 0.00 | 61 | 1015.4 |
| 20260904204710 | 15 | 315 | 25.7 | 29.0 | 0.00 | 0.00 | 0.00 | 61 | 1015.5 |
| 20260904204210 | 15 | 314 | 27.4 | 32.2 | 0.00 | 0.00 | 0.00 | 60 | 1015.4 |
| 20260904203710 | 15 | 309 | 27.4 | 32.2 | 0.00 | 0.00 | 0.00 | 60 | 1015.4 |
| 20260904203210 | 15 | 310 | 25.7 | 32.2 | 0.00 | 0.00 | 0.00 | 60 | 1015.7 |
| 20260904202210 | 15 | 307 | 27.4 | 32.2 | 0.00 | 0.00 | 0.00 | 59 | 1015.5 |
| 20260904201710 | 16 | 317 | 25.7 | 32.2 | 0.00 | 0.00 | 0.00 | 60 | 1015.5 |
| 20260904201210 | 16 | 307 | 24.1 | 27.4 | 0.00 | 0.00 | 0.00 | 59 | 1015.4 |
| 20260904200210 | 15 | 303 | 22.5 | 25.7 | 0.00 | 0.00 | 0.00 | 60 | 1015.5 |
| 20260904195710 | 15 | 304 | 22.5 | 27.4 | 0.00 | 0.00 | 0.00 | 61 | 1015.4 |
| 20260904195210 | 15 | 299 | 20.9 | 24.1 | 0.00 | 0.00 | 0.00 | 62 | 1015.6 |
| 20260904194210 | 15 | 301 | 16.1 | 20.9 | 0.00 | 0.00 | 0.00 | 62 | 1015.4 |
| 20260904193710 | 15 | 304 | 16.1 | 19.3 | 0.00 | 0.00 | 0.00 | 62 | 1015.4 |
| 20260904193209 | 15 | 294 | 14.5 | 19.3 | 0.00 | 0.00 | 0.00 | 62 | 1015.6 |
| 20260904191710 | 15 | 294 | 14.5 | 19.3 | 0.00 | 0.00 | 0.00 | 63 | 1015.6 |
| 20260904190710 | 15 | 305 | 11.3 | 16.1 | 0.00 | 0.00 | 0.00 | 64 | 1015.5 |
| 20260904190210 | 15 | 300 | 11.3 | 14.5 | 0.00 | 0.00 | 0.00 | 64 | 1015.6 |
| 20260904185710 | 15 | 306 | 11.3 | 14.5 | 0.00 | 0.00 | 0.00 | 64 | 1015.7 |
| 20260904185210 | 15 | 303 | 11.3 | 12.9 | 0.00 | 0.00 | 0.00 | 64 | 1015.7 |
| 20260904184710 | 15 | 309 | 9.7 | 12.9 | 0.00 | 0.00 | 0.00 | 64 | 1015.8 |
| 20260904184210 | 15 | 324 | 11.3 | 12.9 | 0.00 | 0.00 | 0.00 | 64 | 1015.7 |
| 20260904183210 | 15 | 326 | 12.9 | 14.5 | 0.00 | 0.00 | 0.00 | 63 | 1015.9 |
| 20260904182710 | 16 | 315 | 11.3 | 14.5 | 0.00 | 0.00 | 0.00 | 63 | 1015.9 |
| 20260904182210 | 16 | 333 | 9.7 | 16.1 | 0.00 | 0.00 | 0.00 | 62 | 1015.8 |
| 20260904181210 | 16 | 317 | 12.9 | 16.1 | 0.00 | 0.00 | 0.00 | 61 | 1015.7 |
| 20260904180710 | 16 | 314 | 12.9 | 14.5 | 0.00 | 0.00 | 0.00 | 61 | 1015.9 |
| 20260904180210 | 16 | 314 | 11.3 | 14.5 | 0.00 | 0.00 | 0.00 | 62 | 1015.9 |
| 20260904175710 | 16 | 302 | 9.7 | 11.3 | 0.00 | 0.00 | 0.00 | 62 | 1015.6 |
| 20260904175210 | 16 | 314 | 9.7 | 11.3 | 0.00 | 0.00 | 0.00 | 63 | 1015.6 |
| 20260904174710 | 16 | 310 | 8.0 | 11.3 | 0.00 | 0.00 | 0.00 | 64 | 1015.6 |
| 20260904174210 | 15 | 320 | 8.0 | 11.3 | 0.00 | 0.00 | 0.00 | 65 | 1015.7 |
| 20260904173710 | 15 | 336 | 4.8 | 11.3 | 0.00 | 0.00 | 0.00 | 67 | 1015.7 |
| 20260904173210 | 15 | 54 | 4.8 | 8.0 | 0.00 | 0.00 | 0.00 | 68 | 1015.6 |
| 20260904172210 | 15 | 308 | 3.2 | 9.7 | 0.00 | 0.00 | 0.00 | 64 | 1015.7 |
| 20260904171210 | 15 | 301 | 8.0 | 11.3 | 0.00 | 0.00 | 0.00 | 65 | 1015.7 |
| 20260904170710 | 15 | 313 | 9.7 | 12.9 | 0.00 | 0.00 | 0.00 | 65 | 1015.8 |
| 20260904170210 | 15 | 312 | 11.3 | 19.3 | 0.00 | 0.00 | 0.00 | 65 | 1015.9 |
| 20260904165710 | 15 | 314 | 9.7 | 19.3 | 0.00 | 0.00 | 0.00 | 66 | 1016.1 |
| 20260904165210 | 15 | 332 | 9.7 | 16.1 | 0.00 | 0.00 | 0.00 | 66 | 1016.1 |
| 20260904164210 | 15 | 329 | 11.3 | 16.1 | 0.00 | 0.00 | 0.00 | 65 | 1016.2 |
| 20260904163710 | 15 | 328 | 9.7 | 12.9 | 0.00 | 0.00 | 0.00 | 65 | 1016.3 |
| 20260904163210 | 15 | 321 | 9.7 | 14.5 | 0.00 | 0.00 | 0.00 | 66 | 1016.3 |
| 20260904162710 | 15 | 319 | 4.8 | 9.7 | 0.00 | 0.00 | 0.00 | 67 | 1016.4 |
| 20260904161709 | 15 | 307 | 0.0 | 4.8 | 0.00 | 0.00 | 0.00 | 67 | 1016.5 |
| 20260904161209 | 15 | 283 | 6.4 | 12.9 | 0.00 | 0.00 | 0.00 | 67 | 1016.8 |
| 20260904160709 | 15 | 296 | 9.7 | 19.3 | 0.00 | 0.00 | 0.00 | 67 | 1016.8 |
| 20260904160210 | 15 | 304 | 14.5 | 19.3 | 0.00 | 0.00 | 0.00 | 67 | 1017.0 |
| 20260904155710 | 15 | 321 | 16.1 | 20.9 | 0.00 | 0.00 | 0.00 | 67 | 1016.8 |
| 20260904155209 | 16 | 310 | 16.1 | 20.9 | 0.00 | 0.00 | 0.00 | 67 | 1017.1 |
| 20260904154709 | 16 | 304 | 16.1 | 19.3 | 0.00 | 0.00 | 0.00 | 68 | 1017.2 |
| 20260904154210 | 16 | 302 | 17.7 | 19.3 | 0.00 | 0.00 | 0.00 | 68 | 1017.2 |
| 20260904153710 | 15 | 306 | 16.1 | 19.3 | 0.00 | 0.00 | 0.00 | 69 | 1017.1 |
| 20260904153210 | 15 | 306 | 16.1 | 19.3 | 0.00 | 0.00 | 0.00 | 69 | 1017.3 |
| 20260904152710 | 15 | 309 | 16.1 | 20.9 | 0.00 | 0.00 | 0.00 | 70 | 1017.4 |
| 20260904152210 | 15 | 309 | 16.1 | 20.9 | 0.00 | 0.00 | 0.00 | 71 | 1017.5 |
| 20260904151710 | 15 | 294 | 16.1 | 20.9 | 0.00 | 0.00 | 0.00 | 72 | 1017.6 |
| 20260904150710 | 15 | 312 | 16.1 | 19.3 | 0.00 | 0.00 | 0.00 | 72 | 1017.5 |
| 20260904145210 | 15 | 310 | 19.3 | 22.5 | 0.00 | 0.00 | 0.00 | 72 | 1017.9 |
| 20260904144709 | 16 | 304 | 16.1 | 20.9 | 0.00 | 0.00 | 0.00 | 72 | 1017.9 |
| 20260904144209 | 16 | 306 | 17.7 | 20.9 | 0.00 | 0.00 | 0.00 | 72 | 1017.8 |
| 20260904143210 | 16 | 304 | 12.9 | 16.1 | 0.00 | 0.00 | 0.00 | 72 | 1017.7 |
| 20260904142709 | 16 | 305 | 12.9 | 19.3 | 0.00 | 0.00 | 0.00 | 72 | 1018.0 |
| 20260904142209 | 16 | 312 | 14.5 | 16.1 | 0.00 | 0.00 | 0.00 | 72 | 1018.0 |
| 20260904141709 | 16 | 310 | 14.5 | 16.1 | 0.00 | 0.00 | 0.00 | 72 | 1017.9 |
| 20260904141209 | 16 | 316 | 14.5 | 16.1 | 0.00 | 0.00 | 0.00 | 72 | 1018.2 |
| 20260904140709 | 16 | 325 | 12.9 | 14.5 | 0.00 | 0.00 | 0.00 | 71 | 1017.9 |
| 20260904140210 | 16 | 318 | 11.3 | 12.9 | 0.00 | 0.00 | 0.00 | 71 | 1018.0 |
| 20260904135710 | 16 | 322 | 11.3 | 12.9 | 0.00 | 0.00 | 0.00 | 71 | 1017.8 |
| 20260904134709 | 16 | 329 | 11.3 | 12.9 | 0.00 | 0.00 | 0.00 | 71 | 1018.1 |
| 20260904134209 | 16 | 337 | 11.3 | 12.9 | 0.00 | 0.00 | 0.00 | 71 | 1018.0 |
| 20260904133709 | 17 | 337 | 11.3 | 11.3 | 0.00 | 0.00 | 0.00 | 71 | 1018.2 |
| 20260904133209 | 17 | 337 | 11.3 | 11.3 | 0.00 | 0.00 | 0.00 | 70 | 1018.2 |
| 20260904132710 | 17 | 337 | 9.7 | 11.3 | 0.00 | 0.00 | 0.00 | 70 | 1018.3 |
| 20260904131709 | 17 | 355 | 9.7 | 12.9 | 0.00 | 0.00 | 0.00 | 70 | 1018.3 |
| 20260904131209 | 17 | 348 | 8.0 | 11.3 | 0.00 | 0.00 | 0.00 | 70 | 1018.7 |
| 20260904130709 | 17 | 359 | 9.7 | 11.3 | 0.00 | 0.00 | 0.00 | 70 | 1018.6 |
| 20260904125709 | 17 | 348 | 8.0 | 9.7 | 0.00 | 0.00 | 0.00 | 71 | 1018.6 |
| 20260904125209 | 16 | 0 | 8.0 | 11.3 | 0.00 | 0.00 | 0.00 | 71 | 1018.7 |
| 20260904124709 | 16 | 354 | 6.4 | 9.7 | 0.00 | 0.00 | 0.00 | 71 | 1018.8 |
| 20260904124210 | 16 | 16 | 4.8 | 8.0 | 0.00 | 0.00 | 0.00 | 71 | 1018.7 |
| 20260904123709 | 16 | 17 | 4.8 | 8.0 | 0.00 | 0.00 | 0.00 | 71 | 1018.8 |
| 20260904123209 | 17 | 359 | 0.0 | 0.0 | 0.00 | 0.00 | 0.00 | 71 | 1019.2 |
| 20260904121709 | 17 | 359 | 3.2 | 4.8 | 0.00 | 0.00 | 0.00 | 70 | 1019.2 |
| 20260904121210 | 17 | 359 | 3.2 | 4.8 | 0.00 | 0.00 | 0.00 | 70 | 1019.4 |
| 20260904120709 | 17 | 359 | 3.2 | 8.0 | 0.00 | 0.00 | 0.00 | 70 | 1019.4 |
| 20260904120209 | 17 | 8 | 4.8 | 8.0 | 0.00 | 0.00 | 0.00 | 70 | 1019.2 |